When you browse on this site, cookies collect data to enhance your experience and personalize the content and advertising you see.
Visit our Privacy Policy to learn more. By continuing to use the site, you agree to this use of cookies and data.
  • In Romania
  • List of Countries
  • For 7 days
  • Water Temperature
  • Weather Map
  • Weather Widgets
  • user-avatar
    Login

    Hourly Weather Shrewsbury

    Today, 2 June, Tuesday

    Time Temperature Precipitation Wind Pressure Humidity
    00:00 +12°C° 0 mm 1 mps 762 mmHg 92%
    01:00 +11°C° 0 mm 1 mps 762 mmHg 91%
    02:00 +11°C° 0 mm 1 mps 762 mmHg 90%
    03:00 +10°C° 0 mm 1 mps 761 mmHg 90%
    04:00 +11°C° 0 mm 1 mps 761 mmHg 87%
    05:00 +11°C° 0 mm 0 mps 761 mmHg 85%
    06:00 +11°C° 0 mm 0 mps 761 mmHg 82%
    07:00 +13°C° 0 mm 0 mps 761 mmHg 77%
    08:00 +15°C° 0 mm 0 mps 761 mmHg 72%
    09:00 +17°C° 0 mm 0 mps 761 mmHg 67%
    10:00 +20°C° 0 mm 1 mps 760 mmHg 64%
    11:00 +21°C° 0 mm 1 mps 760 mmHg 61%
    12:00 +21°C° 0 mm 2 mps 760 mmHg 57%
    13:00 +21°C° 0 mm 2 mps 759 mmHg 57%
    14:00 +22°C° 0 mm 3 mps 758 mmHg 56%
    15:00 +22°C° 0 mm 3 mps 758 mmHg 55%
    16:00 +22°C° 0 mm 3 mps 757 mmHg 60%
    17:00 +21°C° 0 mm 3 mps 757 mmHg 66%
    18:00 +20°C° 0 mm 3 mps 756 mmHg 71%
    19:00 +18°C° 0 mm 3 mps 756 mmHg 74%
    20:00 +16°C° 0 mm 2 mps 756 mmHg 78%
    21:00 +14°C° 0 mm 2 mps 755 mmHg 81%
    22:00 +14°C° 0 mm 2 mps 755 mmHg 81%
    23:00 +14°C° 0 mm 1 mps 755 mmHg 80%

    Tomorrow, 3 June, Wednesday

    Time Temperature Precipitation Wind Pressure Humidity
    00:00 +13°C° 0 mm 1 mps 754 mmHg 80%
    01:00 +13°C° 0.2 mm 1 mps 754 mmHg 84%
    02:00 +13°C° 0.2 mm 2 mps 753 mmHg 88%
    03:00 +13°C° 0.2 mm 2 mps 752 mmHg 93%
    04:00 +13°C° 0.5 mm 2 mps 752 mmHg 94%
    05:00 +13°C° 0.5 mm 2 mps 752 mmHg 95%
    06:00 +13°C° 0.5 mm 2 mps 752 mmHg 96%
    07:00 +12°C° 0.5 mm 3 mps 752 mmHg 95%
    08:00 +12°C° 0.5 mm 3 mps 752 mmHg 95%
    09:00 +13°C° 0.5 mm 3 mps 752 mmHg 94%
    10:00 +12°C° 0.3 mm 3 mps 752 mmHg 94%
    11:00 +12°C° 0.3 mm 4 mps 752 mmHg 93%
    12:00 +11°C° 0.3 mm 4 mps 752 mmHg 93%
    13:00 +11°C° 0.1 mm 4 mps 752 mmHg 92%
    14:00 +12°C° 0.1 mm 4 mps 752 mmHg 92%
    15:00 +12°C° 0.1 mm 4 mps 752 mmHg 91%
    16:00 +12°C° 0.1 mm 4 mps 752 mmHg 91%
    17:00 +12°C° 0.1 mm 4 mps 752 mmHg 90%
    18:00 +12°C° 0.1 mm 3 mps 752 mmHg 89%
    19:00 +12°C° 0.1 mm 3 mps 752 mmHg 90%
    20:00 +11°C° 0.1 mm 3 mps 752 mmHg 90%
    21:00 +10°C° 0.1 mm 3 mps 752 mmHg 90%
    22:00 +10°C° 0 mm 3 mps 752 mmHg 90%
    23:00 +10°C° 0 mm 4 mps 752 mmHg 90%

    Day after tomorrow, 4 June, Thursday

    Time Temperature Precipitation Wind Pressure Humidity
    00:00 +10°C° 0 mm 4 mps 752 mmHg 89%
    01:00 +9°C° 0 mm 3 mps 751 mmHg 89%
    02:00 +9°C° 0 mm 3 mps 751 mmHg 89%
    03:00 +9°C° 0 mm 3 mps 751 mmHg 90%
    04:00 +9°C° 0 mm 2 mps 750 mmHg 89%
    05:00 +9°C° 0 mm 2 mps 750 mmHg 88%
    06:00 +9°C° 0 mm 2 mps 750 mmHg 87%
    07:00 +10°C° 0.1 mm 2 mps 750 mmHg 84%
    08:00 +10°C° 0.1 mm 2 mps 749 mmHg 81%
    09:00 +11°C° 0.1 mm 3 mps 749 mmHg 78%
    10:00 +12°C° 0.2 mm 3 mps 749 mmHg 74%
    11:00 +13°C° 0.2 mm 4 mps 748 mmHg 70%
    12:00 +14°C° 0.2 mm 5 mps 748 mmHg 66%
    13:00 +14°C° 0.2 mm 6 mps 747 mmHg 68%
    14:00 +14°C° 0.2 mm 6 mps 747 mmHg 69%
    15:00 +14°C° 0.2 mm 6 mps 746 mmHg 70%
    16:00 +13°C° 0.3 mm 6 mps 746 mmHg 75%
    17:00 +11°C° 0.3 mm 6 mps 746 mmHg 81%
    18:00 +12°C° 0.3 mm 5 mps 746 mmHg 86%
    19:00 +10°C° 0.1 mm 5 mps 746 mmHg 88%
    20:00 +8°C° 0.1 mm 4 mps 746 mmHg 91%
    21:00 +7°C° 0.1 mm 4 mps 746 mmHg 93%
    22:00 +8°C° 0 mm 3 mps 746 mmHg 93%
    23:00 +8°C° 0 mm 3 mps 746 mmHg 94%

    5 June, Friday

    Time Temperature Precipitation Wind Pressure Humidity
    00:00 +8°C° 0 mm 3 mps 745 mmHg 94%
    01:00 +8°C° 0 mm 3 mps 745 mmHg 94%
    02:00 +7°C° 0 mm 2 mps 745 mmHg 94%
    03:00 +8°C° 0 mm 1 mps 745 mmHg 94%
    04:00 +9°C° 0 mm 1 mps 745 mmHg 93%
    05:00 +8°C° 0 mm 2 mps 745 mmHg 92%
    06:00 +9°C° 0 mm 2 mps 745 mmHg 91%
    07:00 +10°C° 0.1 mm 3 mps 745 mmHg 86%
    08:00 +11°C° 0.1 mm 4 mps 745 mmHg 82%
    09:00 +12°C° 0.1 mm 5 mps 745 mmHg 78%
    10:00 +11°C° 0.1 mm 6 mps 745 mmHg 71%
    11:00 +13°C° 0.1 mm 6 mps 745 mmHg 64%
    12:00 +14°C° 0.1 mm 7 mps 744 mmHg 57%
    13:00 +14°C° 0 mm 7 mps 744 mmHg 57%
    14:00 +14°C° 0 mm 7 mps 744 mmHg 56%
    15:00 +14°C° 0 mm 7 mps 744 mmHg 56%
    16:00 +12°C° 0 mm 7 mps 744 mmHg 58%
    17:00 +13°C° 0 mm 6 mps 744 mmHg 60%
    18:00 +11°C° 0 mm 6 mps 744 mmHg 62%
    19:00 +10°C° 0 mm 5 mps 744 mmHg 70%
    20:00 +8°C° 0 mm 5 mps 744 mmHg 77%
    21:00 +7°C° 0 mm 4 mps 745 mmHg 84%
    22:00 +6°C° 0 mm 4 mps 745 mmHg 84%
    23:00 +6°C° 0 mm 5 mps 745 mmHg 84%

    6 June, Saturday

    Time Temperature Precipitation Wind Pressure Humidity
    00:00 +5°C° 0 mm 5 mps 745 mmHg 84%
    01:00 +5°C° 0 mm 5 mps 745 mmHg 85%
    02:00 +3°C° 0 mm 5 mps 746 mmHg 85%
    03:00 +3°C° 0 mm 5 mps 746 mmHg 85%
    04:00 +4°C° 0 mm 6 mps 746 mmHg 83%
    05:00 +5°C° 0 mm 6 mps 746 mmHg 80%
    06:00 +5°C° 0 mm 7 mps 746 mmHg 78%
    07:00 +6°C° 0.1 mm 8 mps 747 mmHg 72%
    08:00 +7°C° 0.1 mm 8 mps 747 mmHg 67%
    09:00 +8°C° 0.1 mm 9 mps 747 mmHg 61%
    10:00 +8°C° 0.1 mm 9 mps 747 mmHg 61%
    11:00 +8°C° 0.1 mm 9 mps 747 mmHg 61%
    12:00 +10°C° 0.1 mm 9 mps 747 mmHg 61%
    13:00 +10°C° 0.1 mm 9 mps 747 mmHg 61%
    14:00 +10°C° 0.1 mm 9 mps 747 mmHg 62%
    15:00 +10°C° 0.1 mm 9 mps 747 mmHg 62%
    16:00 +9°C° 0.1 mm 8 mps 748 mmHg 65%
    17:00 +9°C° 0.1 mm 8 mps 748 mmHg 67%
    18:00 +9°C° 0.1 mm 7 mps 748 mmHg 69%
    19:00 +8°C° 0 mm 7 mps 748 mmHg 73%
    20:00 +5°C° 0 mm 6 mps 749 mmHg 76%
    21:00 +5°C° 0 mm 5 mps 749 mmHg 80%
    22:00 +5°C° 0 mm 5 mps 749 mmHg 81%
    23:00 +5°C° 0 mm 5 mps 749 mmHg 81%

    7 June, Sunday

    Time Temperature Precipitation Wind Pressure Humidity
    00:00 +3°C° 0 mm 5 mps 749 mmHg 82%
    01:00 +3°C° 0 mm 5 mps 749 mmHg 83%
    02:00 +3°C° 0 mm 5 mps 749 mmHg 85%
    03:00 +3°C° 0 mm 5 mps 749 mmHg 86%
    04:00 +5°C° 0 mm 5 mps 749 mmHg 81%
    05:00 +5°C° 0 mm 6 mps 750 mmHg 77%
    06:00 +6°C° 0 mm 7 mps 750 mmHg 72%
    07:00 +6°C° 0.1 mm 7 mps 750 mmHg 71%
    08:00 +8°C° 0.1 mm 7 mps 750 mmHg 70%
    09:00 +9°C° 0.1 mm 7 mps 751 mmHg 69%
    10:00 +10°C° 0 mm 7 mps 751 mmHg 64%
    11:00 +11°C° 0 mm 8 mps 751 mmHg 60%
    12:00 +12°C° 0 mm 8 mps 751 mmHg 55%
    13:00 +12°C° 0.1 mm 8 mps 751 mmHg 59%
    14:00 +12°C° 0.1 mm 8 mps 751 mmHg 62%
    15:00 +11°C° 0.1 mm 7 mps 751 mmHg 66%
    16:00 +11°C° 0.1 mm 7 mps 751 mmHg 68%
    17:00 +11°C° 0.1 mm 7 mps 750 mmHg 69%
    18:00 +11°C° 0.1 mm 6 mps 750 mmHg 71%
    19:00 +10°C° 0 mm 6 mps 751 mmHg 73%
    20:00 +10°C° 0 mm 5 mps 751 mmHg 76%
    21:00 +10°C° 0 mm 4 mps 751 mmHg 78%
    22:00 +8°C° 0 mm 4 mps 751 mmHg 81%
    23:00 +8°C° 0 mm 4 mps 751 mmHg 83%
    Show more